Date_and_time,latitude,longitude,wind_speed,RelWindDirFrom,WindDirFrom,air_pressure,air_temperature,relative_humidity,Temp,platform_speed_wrt_ground,air_pressure_at_mean_sea_level,platform_orientation
2018-07-13 23:50,51.70793,-96.7969966666667,2.5,5.2,107,986.12,26.2,50,24.35,0.0,1011.44,330.1
2018-07-14 00:00,51.7079616666667,-96.7969383333333,3.9,6.2,146,986.08,26.6,51,24.37,0.0,1011.40,356.1
2018-07-14 00:10,51.70781,-96.7967666666667,1.4,3.4,154,986.01,26.9,45,24.46,0.1,1011.35,356.1
2018-07-14 00:20,51.7063633333333,-96.7971133333333,3.2,4.5,138,985.90,27.2,52,23.98,0.5,1011.22,356.1
2018-07-14 00:30,51.7066516666667,-96.7980566666667,2.1,3.5,134,985.87,27.7,50,23.33,0.2,1011.15,356.1
2018-07-14 00:40,51.7080433333333,-96.796255,2.1,3.7,121,985.79,27.9,47,23.62,0.6,1011.07,356.1
2018-07-14 00:50,51.7116466666667,-96.790535,2.0,8.8,83,985.75,28.1,44,24.11,1.8,1011.03,356.1
2018-07-14 01:00,51.70378,-96.790425,4.2,11.9,164,985.68,28.4,44,23.57,2.8,1010.97,80.7
2018-07-14 01:10,51.675075,-96.7764383333333,10.9,12.9,164,985.45,27.5,44,24.02,10.8,1010.77,80.7
2018-07-14 01:20,51.646585,-96.7819916666667,9.0,12.9,200,985.50,27.8,41,24.00,10.3,1010.78,80.7
2018-07-14 01:30,51.6383566666667,-96.802305,8.3,13.5,256,985.52,28.7,36,24.06,5.4,1010.76,80.7
2018-07-14 01:40,51.63933,-96.8027583333333,3.2,5.8,278,985.72,28.6,37,23.85,0.4,1010.96,80.7
2018-07-14 01:50,51.639325,-96.8027633333333,1.6,2.7,310,985.74,28.6,38,23.60,0.0,1010.96,80.7
2018-07-14 02:00,51.639325,-96.802765,1.5,3.0,336,985.73,28.1,39,23.72,0.0,1010.96,182.9
2018-07-14 02:10,51.63933,-96.8027783333333,1.0,2.0,264,985.85,26.9,48,23.77,0.0,1011.12,182.9
2018-07-14 02:20,51.6393283333333,-96.802765,1.5,2.1,229,985.89,25.5,51,23.82,0.0,1011.21,182.9
2018-07-14 02:30,51.63933,-96.8027616666667,1.4,1.9,230,985.86,25.0,51,23.87,0.0,1011.19,182.9
2018-07-14 02:40,51.6393316666667,-96.8027616666667,1.0,2.1,265,985.88,25.1,51,23.86,0.0,1011.20,182.9
2018-07-14 02:50,51.6393316666667,-96.8027616666667,2.0,2.9,264,985.92,25.1,50,23.76,0.0,1011.22,182.9
2018-07-14 03:00,51.6393333333333,-96.8027616666667,2.3,3.4,254,985.96,25.2,48,23.50,0.0,1011.30,183.0
2018-07-14 03:10,51.6393333333333,-96.8027633333333,2.7,4.0,245,986.09,24.8,51,23.38,0.0,1011.44,183.0
2018-07-14 03:20,51.6393466666667,-96.802795,1.8,3.0,272,986.09,24.6,51,23.32,0.0,1011.40,183.0
2018-07-14 03:30,51.6393416666667,-96.8027833333333,1.6,2.6,276,986.16,24.8,49,23.24,0.0,1011.47,183.0
2018-07-14 03:40,51.6393366666667,-96.8027733333333,1.5,2.7,257,986.24,24.5,54,23.19,0.0,1011.56,183.0
2018-07-14 03:50,51.639335,-96.80277,0.3,1.4,286,986.28,23.3,56,23.16,0.0,1011.68,183.0
2018-07-14 04:00,51.639325,-96.8027733333333,1.1,2.1,254,986.29,23.2,58,23.10,0.0,1011.75,186.8
2018-07-14 04:10,51.6393283333333,-96.8027666666667,1.0,1.9,277,986.30,22.7,58,23.07,0.0,1011.84,186.8
2018-07-14 04:20,51.6393316666667,-96.8027683333333,0.9,1.9,254,986.16,23.0,55,23.20,0.0,1011.71,186.8
2018-07-14 04:30,51.6393316666667,-96.80277,1.5,2.6,248,986.11,23.2,56,23.33,0.0,1011.64,186.8
2018-07-14 04:40,51.6393333333333,-96.80277,1.8,3.0,252,986.08,23.2,57,23.43,0.0,1011.61,186.8
2018-07-14 04:50,51.6393333333333,-96.80277,2.0,2.8,266,985.98,23.1,58,23.47,0.0,1011.51,186.8
2018-07-14 05:00,51.6393266666667,-96.80276,2.3,3.2,258,986.02,23.1,58,23.50,0.0,1011.57,360.0
2018-07-14 05:10,51.6393316666667,-96.80276,2.0,2.8,261,986.13,23.0,60,23.52,0.0,1011.69,360.0
2018-07-14 05:20,51.6393266666667,-96.8027616666667,2.0,3.2,263,986.16,22.7,61,23.52,0.0,1011.73,360.0
2018-07-14 05:30,51.6393233333333,-96.80276,2.2,3.7,264,986.21,22.6,61,23.53,0.0,1011.79,360.0
2018-07-14 05:40,51.639325,-96.8027616666667,3.1,4.4,263,986.27,22.5,60,23.52,0.0,1011.92,360.0
2018-07-14 05:50,51.6393266666667,-96.8027616666667,2.2,3.5,269,986.27,22.5,60,23.52,0.0,1011.91,360.0
2018-07-14 06:00,51.6393283333333,-96.8027616666667,1.4,2.9,62,986.31,22.7,61,23.24,0.0,1011.97,360.0
2018-07-14 06:10,51.63933,-96.8027616666667,1.4,3.8,40,986.32,22.8,60,23.00,0.0,1011.96,360.0
2018-07-14 06:20,51.63933,-96.8027616666667,1.0,3.0,28,986.28,22.5,60,22.82,0.0,1011.93,360.0
2018-07-14 06:30,51.63933,-96.80276,0.8,2.4,68,986.29,22.4,64,22.72,0.0,1011.94,360.0
2018-07-14 06:40,51.63933,-96.80276,1.1,5.1,243,986.28,21.8,65,22.68,0.0,1011.96,360.0
2018-07-14 06:50,51.6393283333333,-96.8027616666667,0.4,2.7,273,986.19,21.3,71,22.66,0.0,1011.90,360.0
2018-07-14 07:00,51.6393283333333,-96.8027616666667,0.1,0.9,78,986.16,21.7,70,22.63,0.0,1011.85,360.0
2018-07-14 07:10,51.63933,-96.8027616666667,1.2,2.1,104,986.17,21.8,72,22.59,0.0,1011.86,360.0
2018-07-14 07:20,51.63933,-96.8027616666667,0.8,1.8,232,986.13,20.8,76,22.54,0.0,1011.87,360.0
2018-07-14 07:30,51.63933,-96.8027616666667,1.3,2.2,216,986.09,20.2,80,22.50,0.0,1011.86,360.0
2018-07-14 07:40,51.63933,-96.8027616666667,0.9,2.5,200,985.99,20.4,84,22.44,0.0,1011.75,360.0
2018-07-14 07:50,51.63933,-96.8027616666667,2.2,3.3,226,985.99,20.3,84,22.36,0.0,1011.75,360.0
2018-07-14 08:00,51.639335,-96.802775,0.4,2.1,234,985.96,20.5,82,22.31,0.0,1011.70,300.4
2018-07-14 08:10,51.6393366666667,-96.8027733333333,1.0,2.0,105,985.90,21.1,81,22.29,0.0,1011.63,300.4
2018-07-14 08:20,51.639335,-96.8027683333333,0.7,2.2,185,985.83,21.3,79,22.27,0.0,1011.56,300.4
2018-07-14 08:30,51.6393333333333,-96.8027666666667,1.1,1.9,252,985.78,20.9,79,22.26,0.0,1011.54,300.4
2018-07-14 08:40,51.6393583333333,-96.8027333333333,1.3,2.4,200,985.74,21.2,73,22.28,0.0,1011.51,300.4
2018-07-14 08:50,51.6393283333333,-96.8027533333333,1.2,2.3,215,985.73,21.0,74,22.28,0.0,1011.50,300.4
2018-07-14 09:00,51.6393283333333,-96.802755,2.1,3.0,234,985.78,21.1,69,22.29,0.0,1011.54,90.0
2018-07-14 09:10,51.6393283333333,-96.8027516666667,1.9,3.1,212,985.77,21.4,65,22.27,0.0,1011.55,90.0
2018-07-14 09:20,51.63933,-96.8027533333333,1.6,2.9,205,985.65,21.5,65,22.28,0.0,1011.46,90.0
2018-07-14 09:30,51.63933,-96.8027566666667,1.4,2.5,211,985.58,21.4,69,22.28,0.0,1011.38,90.0
2018-07-14 09:40,51.6393316666667,-96.8027566666667,1.1,2.6,181,985.42,21.6,71,22.28,0.0,1011.21,90.0
2018-07-14 09:50,51.6393483333333,-96.8027633333333,1.5,2.8,175,985.34,22.1,72,22.27,0.0,1011.11,90.0
2018-07-14 10:00,51.63934,-96.8027466666667,1.1,2.1,97,985.16,22.1,74,22.26,0.0,1010.89,34.1
2018-07-14 10:10,51.63934,-96.80277,1.9,4.2,113,985.10,21.9,75,22.26,0.0,1010.82,34.1
2018-07-14 10:20,51.6393366666667,-96.8027616666667,3.8,6.4,150,985.10,22.3,75,22.26,0.0,1010.82,34.1
2018-07-14 10:30,51.6393366666667,-96.8027633333333,3.5,5.6,146,985.01,22.5,74,22.27,0.0,1010.72,34.1
2018-07-14 10:40,51.639335,-96.8027616666667,1.9,4.1,144,984.95,22.1,74,22.27,0.0,1010.67,34.1
2018-07-14 10:50,51.6393083333333,-96.8027816666667,1.0,4.2,203,984.92,22.0,75,22.26,0.0,1010.65,34.1
2018-07-14 11:00,51.6393383333333,-96.8027616666667,4.5,6.6,214,984.95,21.7,76,22.23,0.0,1010.67,360.0
2018-07-14 11:10,51.6393416666667,-96.8027583333333,4.4,5.6,215,985.00,21.6,78,22.24,0.0,1010.73,360.0
2018-07-14 11:20,51.63934,-96.802765,3.2,4.4,225,985.04,21.5,78,22.27,0.0,1010.78,360.0
2018-07-14 11:30,51.63934,-96.8027633333333,3.0,4.1,211,984.94,21.8,79,22.26,0.0,1010.66,360.0
2018-07-14 11:40,51.63934,-96.8027633333333,2.9,4.4,200,984.87,22.2,80,22.27,0.0,1010.55,360.0
2018-07-14 11:50,51.6393366666667,-96.8027633333333,5.1,8.5,197,984.86,22.4,79,22.26,0.0,1010.52,360.0
2018-07-14 12:00,51.6393366666667,-96.8027633333333,6.0,8.0,188,984.87,23.9,72,22.30,0.0,1010.48,313.2
2018-07-14 12:10,51.639335,-96.8027616666667,6.6,8.6,184,984.80,26.3,64,22.33,0.0,1010.29,313.2
2018-07-14 12:20,51.63934,-96.802755,7.1,9.1,186,984.84,26.7,63,22.36,0.0,1010.30,313.2
2018-07-14 12:30,51.63828,-96.7975533333333,6.7,11.3,183,984.98,23.9,74,22.38,1.2,1010.58,313.2
2018-07-14 12:40,51.6589233333333,-96.774875,4.0,8.1,111,985.07,23.7,75,22.59,9.0,1010.69,313.2
2018-07-14 12:50,51.687655,-96.7888883333333,2.6,5.3,299,984.78,23.4,77,22.60,10.8,1010.42,313.2
2018-07-14 13:00,51.71709,-96.8081833333333,3.6,6.5,319,984.62,23.5,72,22.49,11.4,1010.26,357.6
2018-07-14 13:10,51.7465466666667,-96.8266633333333,3.3,5.1,347,984.63,23.3,78,22.63,11.4,1010.28,357.6
2018-07-14 13:20,51.7507333333333,-96.8309966666667,7.8,11.8,149,984.44,23.4,77,22.63,1.8,1010.06,357.6
2018-07-14 13:30,51.7510783333333,-96.8300583333333,9.7,12.0,156,984.53,23.0,88,22.63,0.2,1010.16,357.6
2018-07-14 13:40,51.7530816666667,-96.833095,7.6,10.5,157,984.73,22.8,89,22.68,1.0,1010.36,357.6
2018-07-14 13:50,51.77576,-96.8691666666667,6.9,10.3,262,984.69,22.9,71,22.41,11.5,1010.24,357.6
2018-07-14 14:00,51.8006016666667,-96.9000866666667,6.7,9.3,260,984.29,23.1,67,22.24,11.3,1009.73,339.5
2018-07-14 14:10,51.827395,-96.92584,6.0,8.0,254,983.97,22.8,70,22.05,11.2,1009.39,339.5
2018-07-14 14:20,51.853745,-96.9533133333333,8.4,12.9,242,983.78,22.4,77,22.26,11.3,1009.33,339.5
2018-07-14 14:30,51.867395,-96.9674166666667,17.5,22.0,195,982.30,22.1,82,22.03,5.8,1007.84,339.5
2018-07-14 14:40,51.8539216666667,-96.9509566666667,16.6,22.0,209,983.86,22.6,81,21.82,6.1,1009.43,339.5
2018-07-14 14:50,51.8283416666667,-96.9243433333333,16.3,19.4,200,984.04,22.3,81,21.99,10.9,1009.63,339.5
2018-07-14 15:00,51.801965,-96.899105,18.8,23.3,207,984.03,22.4,80,22.11,11.0,1009.62,339.9
2018-07-14 15:10,51.7758066666667,-96.8746483333333,17.5,21.6,185,983.73,22.4,76,21.87,10.9,1009.30,339.9
2018-07-14 15:20,51.7518016666667,-96.8448983333333,15.7,19.2,165,983.70,21.8,79,21.97,10.9,1009.32,339.9
2018-07-14 15:30,51.72629,-96.8198783333333,18.5,21.9,171,983.57,21.8,87,21.92,10.7,1009.19,339.9
2018-07-14 15:40,51.7003833333333,-96.7954533333333,20.8,22.5,167,983.35,22.4,83,22.11,10.8,1008.94,339.9
2018-07-14 15:50,51.673655,-96.773895,19.3,22.7,174,983.22,22.7,79,22.07,10.8,1008.78,339.9
2018-07-14 16:00,51.6465583333333,-96.7802966666667,18.5,22.1,206,983.31,22.9,76,22.25,9.9,1008.88,166.2
2018-07-14 16:10,51.6389983333333,-96.8028516666667,12.7,21.6,188,982.78,23.0,73,22.43,5.7,1008.35,166.2
2018-07-14 16:20,51.639335,-96.8027566666667,9.7,13.7,146,982.47,24.3,70,22.32,0.1,1007.99,166.2
2018-07-14 16:30,51.639335,-96.8027583333333,10.1,16.8,152,982.43,25.1,67,22.19,0.0,1007.89,166.2
2018-07-14 16:40,51.639335,-96.8027566666667,11.3,15.6,155,982.16,25.3,67,22.15,0.0,1007.61,166.2
2018-07-14 16:50,51.6393333333333,-96.8027533333333,12.3,16.9,156,982.14,25.7,66,22.17,0.0,1007.58,166.2
2018-07-14 17:00,51.6393266666667,-96.8027433333333,11.2,15.1,155,982.01,26.1,65,22.20,0.0,1007.43,159.5
2018-07-14 17:10,51.6393283333333,-96.8027516666667,11.9,16.6,157,981.72,26.2,65,22.14,0.0,1007.15,159.5
2018-07-14 17:20,51.6393333333333,-96.8027716666667,12.4,17.2,158,981.59,26.3,64,22.41,0.0,1007.01,159.5
2018-07-14 17:30,51.6393316666667,-96.8027433333333,11.9,16.3,164,981.63,26.7,60,22.35,0.0,1007.01,159.5
2018-07-14 17:40,51.6393433333333,-96.8027683333333,11.4,15.9,160,981.62,27.1,59,22.47,0.0,1006.97,159.5
2018-07-14 17:50,51.639335,-96.8027283333333,9.9,15.3,159,981.46,27.6,58,22.38,0.0,1006.77,159.5
2018-07-14 18:00,51.63934,-96.8027566666667,10.4,14.6,154,981.07,27.9,58,22.41,0.0,1006.36,159.8
2018-07-14 18:10,51.6393433333333,-96.802735,10.4,16.4,157,980.74,28.4,56,22.46,0.0,1005.95,159.8
2018-07-14 18:20,51.6393383333333,-96.8027566666667,12.0,18.6,167,980.87,28.8,55,22.43,0.0,1006.02,159.8
2018-07-14 18:30,51.6393383333333,-96.8027566666667,11.2,16.0,163,981.04,28.7,54,22.58,0.0,1006.19,159.8
2018-07-14 18:40,51.639345,-96.802765,7.6,12.0,150,981.05,28.7,55,22.50,0.0,1006.19,159.8
2018-07-14 18:50,51.63933,-96.8027433333333,5.5,8.3,144,980.94,28.4,57,22.56,0.0,1006.08,159.8
2018-07-14 19:00,51.63934,-96.802765,8.2,16.5,153,980.69,28.9,55,22.52,0.0,1005.79,242.6
2018-07-14 19:10,51.6393483333333,-96.8027616666667,13.7,29.4,167,980.35,29.8,50,22.51,0.0,1005.40,242.6
2018-07-14 19:20,51.6393466666667,-96.8027683333333,17.9,25.1,167,980.05,30.1,47,22.54,0.0,1005.06,242.6
2018-07-14 19:30,51.639345,-96.8027483333333,21.5,28.3,173,979.81,30.0,47,22.55,0.0,1004.81,242.6
2018-07-14 19:40,51.6393383333333,-96.8027433333333,20.0,27.9,175,979.74,30.0,47,22.53,0.0,1004.72,242.6
2018-07-14 19:50,51.6393433333333,-96.8027633333333,20.8,31.3,173,979.52,30.2,47,22.62,0.0,1004.46,242.6
2018-07-14 20:00,51.6393283333333,-96.802755,21.1,29.5,171,979.26,30.6,46,22.64,0.0,1004.17,270.0
2018-07-14 20:10,51.6393366666667,-96.8027416666667,20.4,27.1,169,979.12,31.2,44,22.66,0.0,1003.98,270.0
2018-07-14 20:20,51.6393366666667,-96.8027516666667,19.0,24.9,167,979.04,31.6,43,22.69,0.0,1003.87,270.0
2018-07-14 20:30,51.6393266666667,-96.8027566666667,19.9,28.0,167,978.91,31.7,43,22.68,0.0,1003.74,270.0
2018-07-14 20:40,51.6393266666667,-96.8027466666667,18.7,26.8,169,978.79,31.7,43,22.75,0.0,1003.63,270.0
2018-07-14 20:50,51.6393433333333,-96.80274,16.1,22.7,171,978.81,31.7,43,22.77,0.0,1003.63,270.0
2018-07-14 21:00,51.63934,-96.8027633333333,17.2,24.5,170,978.77,31.8,43,22.80,0.0,1003.55,270.0
2018-07-14 21:10,51.639345,-96.8027416666667,17.6,26.2,168,978.61,32.0,42,22.81,0.0,1003.36,270.0
2018-07-14 21:20,51.6393466666667,-96.8027533333333,18.5,25.0,170,978.49,31.9,43,22.83,0.0,1003.26,270.0
2018-07-14 21:30,51.6393283333333,-96.802755,19.4,26.8,173,978.44,31.8,43,22.86,0.0,1003.21,270.0
2018-07-14 21:40,51.639335,-96.80274,20.1,30.4,172,978.46,31.7,43,22.87,0.0,1003.22,270.0
2018-07-14 21:50,51.639345,-96.8027683333333,20.9,31.2,171,978.39,31.7,43,22.91,0.0,1003.13,270.0
2018-07-14 22:00,51.639325,-96.80274,19.6,26.4,172,978.31,31.6,44,22.95,0.0,1003.03,152.2
2018-07-14 22:10,51.63935,-96.8027633333333,21.1,29.2,173,977.89,31.6,44,22.96,0.0,1002.58,152.2
2018-07-14 22:20,51.639335,-96.80276,20.5,28.8,174,977.33,31.5,44,22.99,0.0,1002.01,152.2
2018-07-14 22:30,51.6393383333333,-96.80277,20.0,28.7,171,977.26,31.2,45,23.02,0.0,1001.94,152.2
2018-07-14 22:40,51.63933,-96.8027583333333,20.6,28.3,171,977.01,30.7,46,23.02,0.0,1001.71,152.2
2018-07-14 22:50,51.639335,-96.8027533333333,17.7,26.9,174,977.12,30.3,48,23.03,0.0,1001.83,152.2
2018-07-14 23:00,51.6393383333333,-96.802755,16.4,23.2,175,977.44,30.0,48,23.03,0.0,1002.17,360.0
2018-07-14 23:10,51.6393433333333,-96.8027383333333,16.7,21.6,170,976.87,30.0,48,23.02,0.0,1001.60,360.0
2018-07-14 23:20,51.63934,-96.8027383333333,15.5,22.4,175,977.06,30.0,48,23.01,0.0,1001.79,360.0
2018-07-14 23:30,51.63934,-96.80275,15.7,22.5,179,976.88,29.6,49,23.00,0.0,1001.62,360.0
